EW0159 Weather Reports


Display with metric or nautical units.
time (UTC)temp
F
wind
direction
speed
MPH
gust
MPH
rain 1hr
in
rain 24hr
in
rain mn
in
humidity
%
barometer
mb
20260505010033 74 219 4.0 7.0 0.00 0.00 0.00 66 1009.8
20260505004532 75 218 3.0 7.0 0.00 0.00 0.00 63 1009.9
20260505003029 75 240 4.0 9.0 0.00 0.00 0.00 65 1009.9
20260505001535 75 236 5.0 8.0 0.00 0.00 0.00 63 1009.9
20260505000038 75 162 4.0 9.0 0.00 0.00 0.00 64 1010.1
20260504234528 75 170 3.0 7.0 0.00 0.00 0.00 66 1010.1
20260504233028 75 176 2.0 7.0 0.00 0.00 0.00 66 1010.2
20260504231530 74 165 3.0 6.0 0.00 0.00 0.00 65 1010.3
20260504230023 74 59 2.0 7.0 0.00 0.00 0.00 64 1010.4
20260504224525 73 207 3.0 8.0 0.00 0.00 0.00 67 1010.7
20260504223019 72 154 4.0 7.0 0.00 0.00 0.00 64 1010.8
20260504221515 71 146 2.0 8.0 0.00 0.00 0.00 68 1011.0
20260504220018 71 155 3.0 8.0 0.00 0.00 0.00 68 1011.3
20260504214511 70 159 2.0 7.0 0.00 0.00 0.00 71 1011.3
20260504213012 69 156 3.0 8.0 0.00 0.00 0.00 71 1011.5
20260504211512 69 195 4.0 9.0 0.00 0.00 0.00 72 1011.7
20260504210007 68 188 3.0 7.0 0.00 0.00 0.00 71 1012.0
20260504204504 68 222 2.0 7.0 0.00 0.00 0.00 72 1012.2
20260504203007 67 62 3.0 7.0 0.00 0.00 0.00 72 1012.3
20260504201501 67 132 2.0 7.0 0.00 0.00 0.00 72 1012.5
20260504194608 65 190 2.0 7.0 0.00 0.00 0.00 75 1012.6
20260504193055 65 166 4.0 7.0 0.00 0.00 0.00 73 1012.8
20260504191552 64 294 3.0 8.0 0.00 0.00 0.00 74 1012.9
20260504190114 63 138 3.0 7.0 0.00 0.00 0.00 76 1013.0
20260504184556 63 151 5.0 9.0 0.00 0.00 0.00 76 1013.1
20260504183050 63 171 4.0 9.0 0.00 0.00 0.00 77 1013.0
20260504181553 63 124 5.0 8.0 0.00 0.00 0.00 76 1012.9
20260504180135 62 130 3.0 7.0 0.00 0.00 0.00 79 1013.0
20260504174550 61 217 4.0 7.0 0.00 0.00 0.00 79 1013.2
20260504173058 60 140 1.0 5.0 0.00 0.00 0.00 78 1013.1
20260504171546 60 86 3.0 6.0 0.00 0.00 0.00 78 1013.0
20260504081529 61 48 0.0 2.0 0.00 0.00 0.00 69 1007.8
20260504050010 75 99 0.0 3.0 0.00 0.00 0.00 41 1007.0
20260504044510 75 36 1.0 3.0 0.00 0.00 0.00 39 1007.0
20260504043010 77 350 0.0 3.0 0.00 0.00 0.00 36 1006.9
20260504041508 78 64 1.0 7.0 0.00 0.00 0.00 36 1006.7
20260504040010 78 270 0.0 4.0 0.00 0.00 0.00 37 1006.7
20260504034508 79 89 2.0 7.0 0.00 0.00 0.00 36 1006.5
20260504033008 80 37 0.0 4.0 0.00 0.00 0.00 37 1006.5
20260504031507 81 54 1.0 7.0 0.00 0.00 0.00 36 1006.3
20260504030007 82 320 1.0 4.0 0.00 0.00 0.00 37 1006.3
20260504024506 83 49 1.0 5.0 0.00 0.00 0.00 38 1006.2
20260504023006 84 10 2.0 6.0 0.00 0.00 0.00 37 1006.2
20260504021505 85 71 1.0 9.0 0.00 0.00 0.00 35 1006.1
20260504020004 86 34 2.0 7.0 0.00 0.00 0.00 33 1006.1
20260504014510 87 40 3.0 6.0 0.00 0.00 0.00 32 1006.1
20260504013003 88 31 2.0 4.0 0.00 0.00 0.00 29 1006.2
20260504011501 88 24 3.0 7.0 0.00 0.00 0.00 28 1006.3